Weather observations for the past three days for
Eureka Airport ASOS
Imperial (Metric)
Date Time (pdt) Wind (mph) Vis. (mi.) Weather Sky Cond. Temperature (ºF) Relative Humidity Wind Chill (°F) Heat Index (°F) Pressure Precipitation (in)
Air Dwpt 6 hour altimeter (in) sea level (mb) 1 hr 3 hr 6 hr
Max. Min.
15 15:53 Calm 0.00 NULL NULL 86 42.1 21% 83 30.21 1014.8
15 14:53 N 7 0.00 NULL NULL 86 39.9 20% 83 30.23 1015.0
15 13:53 NW 8 0.00 NULL NULL 88 42.1 20% 84 30.25 1015.6
15 12:53 E 8 0.00 NULL NULL 84 43 24% 81 30.27 1016.6
15 07:53 Calm 0.00 NULL NULL 64.9 46.9 52% 30.35 1020.3
15 06:53 S 5 0.00 NULL NULL 55.9 44.1 65% 30.34 1020.3
15 05:53 S 5 0.00 NULL NULL 51.1 43 74% 30.34 1020.3
15 03:53 S 3 0.00 NULL NULL 52 43 72% 30.32 1018.2
15 02:53 Calm 0.00 NULL NULL 55 43 64% 30.31 1017.9
15 01:53 SW 9 0.00 NULL NULL 55 44.1 67% 30.31 1017.8
15 00:53 S 5 0.00 NULL NULL 55 44.1 67% 30.32 1018.3
14 23:53 S 7 0.00 NULL NULL 55 45 69% 30.33 1018.5
14 22:53 E 7 0.00 NULL NULL 57 46.9 84 57 69% 30.34 1018.8
14 21:53 Calm 0.00 NULL NULL 62.1 46.9 58% 30.33 1018.3
14 20:53 N 5 0.00 NULL NULL 64 48.9 58% 30.32 1018.2
14 19:53 N 6 0.00 NULL NULL 66.9 50 55% 30.32 1017.9
14 18:53 N 8 0.00 NULL NULL 73.9 46.9 38% 30.31 1017.7
14 17:53 N 12 G 29 0.00 NULL NULL 77 45 32% 78 30.3 1017.7
14 16:53 NW 24 G 38 0.00 Breezy NULL 84 46 91 81 27% 82 30.22 1013.7
14 15:53 W 14 G 23 0.00 NULL NULL 89.1 36 15% 85 30.19 1012.5
14 14:53 S 7 G 24 0.00 NULL NULL 89.1 34 14% 85 30.21 1013.1
14 13:53 W 16 G 22 0.00 NULL NULL 90 41 18% 86 30.25 1013.8
14 12:53 W 7 G 24 0.00 NULL NULL 88 39.9 18% 84 30.26 1014.5
14 11:53 W 14 G 25 0.00 NULL NULL 88 41 19% 84 30.28 1014.9
14 10:53 W 16 G 23 0.00 NULL NULL 84.9 41 86 62.1 21% 82 30.29 1015.3
14 08:53 W 6 0.00 NULL NULL 80.1 45 29% 79 30.31 1016.7
14 06:53 SW 6 0.00 NULL NULL 66.9 44.1 44% 30.31 1017.6
14 05:53 S 8 0.00 NULL NULL 63 42.1 47% 30.3 1016.8
14 04:53 S 8 0.00 NULL NULL 70 44.1 80.1 66 39% 30.29 1015.3
14 03:53 SE 7 0.00 NULL NULL 66.9 45 45% 30.29 1015.8
14 02:53 SW 3 0.00 NULL NULL 69.1 44.1 41% 30.29 1015.8
14 01:53 SW 5 0.00 NULL NULL 73 44.1 35% 30.31 1016.0
14 00:53 W 9 0.00 NULL NULL 72 44.1 37% 30.31 1015.9
13 23:53 S 15 0.00 NULL NULL 75 44.1 33% 77 30.3 1015.2
13 22:53 S 9 0.00 NULL NULL 78.1 42.1 93 77 28% 78 30.3 1015.4
13 21:53 SW 9 G 24 0.00 NULL NULL 78.1 44.1 30% 78 30.32 1016.5
13 20:53 SE 14 0.00 NULL NULL 77 44.1 31% 78 30.29 1015.7
13 19:53 SE 15 G 26 0.00 NULL NULL 78.1 46 32% 78 30.3 1016.2
13 18:53 SE 28 G 51 0.00 Windy NULL 77 48 36% 78 30.27 1016.4
13 17:53 SW 20 G 36 0.00 NULL NULL 86 37.9 18% 83 30.2 1013.2
13 16:53 Vrbl 7 0.00 NULL NULL 93.9 35.1 96.1 87.1 13% 89 30.18 1012.1
13 15:53 NE 14 G 24 0.00 NULL NULL 91.9 37.9 15% 88 30.2 1012.3
13 14:53 N 6 0.00 NULL NULL 88 39 18% 84 30.22 1013.7
13 13:53 W 6 0.00 NULL NULL 91 34 13% 87 30.22 1013.3
13 12:53 Calm 0.00 NULL NULL 93 34 12% 89 30.23 1013.2
13 11:53 S 14 G 29 0.00 NULL NULL 93.9 34 12% 89 30.24 1013.2
13 10:53 S 21 G 28 0.00 Breezy NULL 91.9 35.1 91.9 63 13% 88 30.26 1013.4
13 09:53 S 9 0.00 NULL NULL 87.1 35.1 16% 84 30.26 1013.8
13 08:53 E 5 0.00 NULL NULL 84 34 17% 81 30.26 1014.2
13 07:53 SW 5 0.00 NULL NULL 78.1 33.1 19% 77 30.26 1014.3
13 06:53 Calm 0.00 NULL NULL 66.9 33.1 29% 30.26 1014.8
13 05:53 SW 3 0.00 NULL NULL 66 32 28% 30.25 1014.3
13 04:53 NW 6 0.00 NULL NULL 64 30.9 82.9 64 29% 30.23 1013.8
13 03:53 S 6 0.00 NULL NULL 73 30 20% 30.21 1012.3
13 02:53 Vrbl 3 0.00 NULL NULL 68 30 24% 30.22 1012.8
13 01:53 SE 3 0.00 NULL NULL 69.1 28.9 22% 30.22 1012.8
13 00:53 Vrbl 7 0.00 NULL NULL 71.1 30 22% 30.23 1012.9
12 23:53 N 3 0.00 NULL NULL 77 28.9 17% 77 30.22 1012.4
12 22:53 Vrbl 3 0.00 NULL NULL 84 28.9 93.9 77 13% 81 30.22 1012.1
12 21:53 Vrbl 5 0.00 NULL NULL 82.9 28.9 14% 80 30.23 1012.6
12 20:53 S 9 0.00 NULL NULL 81 28 14% 79 30.22 1012.5
12 19:53 E 5 0.00 NULL NULL 87.1 28.9 12% 83 30.21 1012.4
12 18:53 N 12 G 22 0.00 NULL NULL 91 26.1 9% 87 30.18 1011.9
12 17:53 W 8 G 28 0.00 NULL NULL 91.9 24.1 8% 88 30.16 1011.7
Date Time (pdt) Wind (mph) Vis. (mi.) Weather Sky Cond. Air Dwpt Max. Min. Relative Humidity Wind Chill (°F) Heat Index (°F) altimeter (in) sea level (mb) 1 hr 3 hr 6 hr
6 hour
Temperature (ºF) Pressure Precipitation (in)